| time (UTC) | temp C | wind direction | speed KPH | gust KPH | rain 1hr cm | rain 24hr cm | rain mn cm | humidity % | barometer mb |
| 20260504081539 | 6 | 209 | 0.0 | 0.0 | 0.00 | 0.00 | 0.00 | 62 | 1010.4 |
| 20260504050008 | 6 | 221 | 0.0 | 0.0 | 0.00 | 0.00 | 0.00 | 61 | 1010.2 |
| 20260504044512 | 6 | 221 | 0.0 | 1.6 | 0.00 | 0.00 | 0.00 | 62 | 1010.1 |
| 20260504043012 | 6 | 221 | 0.0 | 0.0 | 0.00 | 0.00 | 0.00 | 63 | 1010.1 |
| 20260504041507 | 6 | 221 | 0.0 | 0.0 | 0.00 | 0.00 | 0.00 | 60 | 1010.0 |
| 20260504040007 | 7 | 221 | 0.0 | 0.0 | 0.00 | 0.00 | 0.00 | 55 | 1009.8 |
| 20260504034505 | 7 | 221 | 0.0 | 1.6 | 0.00 | 0.00 | 0.00 | 56 | 1009.7 |
| 20260504033004 | 7 | 219 | 0.0 | 4.8 | 0.00 | 0.00 | 0.00 | 55 | 1009.7 |
| 20260504031504 | 7 | 256 | 0.0 | 0.0 | 0.00 | 0.00 | 0.00 | 57 | 1009.9 |
| 20260504030040 | 7 | 256 | 0.0 | 1.6 | 0.00 | 0.00 | 0.00 | 56 | 1009.8 |
| 20260504024532 | 7 | 266 | 0.0 | 3.2 | 0.00 | 0.00 | 0.00 | 57 | 1009.8 |
| 20260504023031 | 7 | 339 | 0.0 | 0.0 | 0.00 | 0.00 | 0.00 | 58 | 1009.9 |
| 20260504021533 | 7 | 339 | 0.0 | 1.6 | 0.00 | 0.00 | 0.00 | 57 | 1009.9 |
| 20260504020029 | 8 | 340 | 0.0 | 0.0 | 0.00 | 0.00 | 0.00 | 54 | 1009.9 |
| 20260504014529 | 8 | 340 | 0.0 | 0.0 | 0.00 | 0.00 | 0.00 | 54 | 1009.8 |
| 20260504013026 | 8 | 340 | 0.0 | 0.0 | 0.00 | 0.00 | 0.00 | 54 | 1009.7 |
| 20260504011526 | 8 | 340 | 0.0 | 0.0 | 0.00 | 0.00 | 0.00 | 56 | 1009.7 |
| 20260504010025 | 8 | 340 | 0.0 | 1.6 | 0.00 | 0.00 | 0.00 | 55 | 1009.6 |
| 20260504004525 | 8 | 340 | 0.0 | 0.0 | 0.00 | 0.00 | 0.00 | 52 | 1009.5 |
| 20260504003022 | 8 | 340 | 0.0 | 0.0 | 0.00 | 0.00 | 0.00 | 50 | 1009.3 |
| 20260504001522 | 9 | 340 | 0.0 | 0.0 | 0.00 | 0.00 | 0.00 | 49 | 1009.2 |
| 20260504000021 | 10 | 340 | 0.0 | 0.0 | 0.00 | 0.00 | 0.00 | 48 | 1009.0 |
| 20260503234532 | 10 | 232 | 0.0 | 1.6 | 0.00 | 0.00 | 0.00 | 47 | 1008.9 |
| 20260503233019 | 11 | 247 | 0.0 | 4.8 | 0.00 | 0.00 | 0.00 | 45 | 1008.8 |
| 20260503231518 | 11 | 259 | 0.0 | 4.8 | 0.00 | 0.00 | 0.00 | 44 | 1008.9 |
| 20260503230018 | 12 | 256 | 0.0 | 12.9 | 0.00 | 0.00 | 0.00 | 41 | 1008.8 |
| 20260503224517 | 12 | 277 | 1.6 | 9.7 | 0.00 | 0.00 | 0.00 | 41 | 1008.8 |
| 20260503223014 | 13 | 256 | 0.0 | 16.1 | 0.00 | 0.00 | 0.00 | 40 | 1008.7 |
| 20260503221514 | 12 | 273 | 0.0 | 6.4 | 0.00 | 0.00 | 0.00 | 39 | 1008.6 |
| 20260503220034 | 12 | 287 | 0.0 | 16.1 | 0.00 | 0.00 | 0.00 | 37 | 1008.5 |
| 20260503214514 | 13 | 271 | 0.0 | 25.7 | 0.00 | 0.00 | 0.00 | 36 | 1008.4 |
| 20260503213012 | 13 | 275 | 4.8 | 17.7 | 0.00 | 0.00 | 0.00 | 35 | 1008.4 |
| 20260503211511 | 13 | 258 | 0.0 | 16.1 | 0.00 | 0.00 | 0.00 | 36 | 1008.2 |
| 20260503210008 | 13 | 217 | 0.0 | 4.8 | 0.00 | 0.00 | 0.00 | 32 | 1008.1 |
| 20260503204509 | 13 | 186 | 0.0 | 3.2 | 0.00 | 0.00 | 0.00 | 37 | 1008.3 |
| 20260503203015 | 13 | 252 | 1.6 | 11.3 | 0.00 | 0.00 | 0.00 | 36 | 1008.1 |
| 20260503201506 | 13 | 246 | 1.6 | 19.3 | 0.00 | 0.00 | 0.00 | 31 | 1008.2 |
| 20260503200004 | 13 | 259 | 0.0 | 12.9 | 0.00 | 0.00 | 0.00 | 34 | 1008.4 |
| 20260503194600 | 12 | 188 | 0.0 | 11.3 | 0.00 | 0.00 | 0.00 | 36 | 1008.5 |
| 20260503193033 | 12 | 46 | 1.6 | 11.3 | 0.00 | 0.00 | 0.00 | 36 | 1008.8 |
| 20260503191527 | 12 | 318 | 3.2 | 17.7 | 0.00 | 0.00 | 0.00 | 33 | 1008.8 |
| 20260503190127 | 12 | 256 | 3.2 | 22.5 | 0.00 | 0.00 | 0.00 | 34 | 1008.9 |
| 20260503184606 | 12 | 247 | 0.0 | 16.1 | 0.00 | 0.00 | 0.00 | 36 | 1009.1 |
| 20260503183107 | 11 | 244 | 0.0 | 12.9 | 0.00 | 0.00 | 0.00 | 39 | 1009.2 |
| 20260503183103 | 11 | 251 | 0.0 | 12.9 | 0.00 | 0.00 | 0.00 | 39 | 1009.2 |
| 20260503181523 | 12 | 219 | 0.0 | 14.5 | 0.00 | 0.00 | 0.00 | 36 | 1009.3 |
| 20260503180022 | 11 | 234 | 0.0 | 12.9 | 0.00 | 0.00 | 0.00 | 34 | 1009.5 |
| 20260503174517 | 11 | 226 | 0.0 | 8.0 | 0.00 | 0.00 | 0.00 | 36 | 1009.5 |
| 20260503173017 | 11 | 202 | 1.6 | 14.5 | 0.00 | 0.00 | 0.00 | 37 | 1009.6 |
| 20260503171513 | 10 | 151 | 1.6 | 11.3 | 0.00 | 0.00 | 0.00 | 47 | 1009.6 |